FLOCK 2K-10 (42895 NORAD) Tracking and Keplerian Element Data

This shows tracking and keplerian element data for the satellite.

Feedback or suggestion? Click here.




ElementValue
Catalog42895
NameFLOCK 2K-10
Epoch Orbit15217
Epoch Day91.91473234
Epoch Year2020
RAAN324.1942
Inclination96.904
Eccentricity0.0009369
Argument of Perigee236.8764
Mean Anonmoly123.1586
Mean Motion15.40836417
Decay Rate3.467E-05
L11 42895U 17042BY 20091.91473234 .00003467 00000-0 86343-4 0 9995
L22 42895 96.9040 324.1942 0009369 236.8764 123.1586 15.40836417152177

Live tracking and technical data element details for FLOCK 2K-10 (NORAD 42895). FLOCK 2K-10 can be tracked NOW for your location showing map with azimuth and elevation plus other details from your city location.

Track the satellite on the map from your city or location and see movement details for azimuth, elevation, latitude, longitude, range, height, and movement on the map or in text.







IsCatalogInMostPopularTable: catalog: 42895, numindb: 371
Update: records affected: 1



GetName: 42895 FLOCK 2K-10

Hit Count: updated at: Fri, 03 Apr 2020 07:41:53 GMT